[TLELIST] Archives

 

[TLELIST] Current TLEs

November 7th 2025 PDT

0 HST 1 20580U 90037B 25310.66648323 .00008493 00000-0 30006-3 0 9999 2 20580 28.4657 157.8958 0001635 179.8575 180.2020 15.27343532754474 0 ISS (ZARYA) 1 25544U 98067A 25311.19511068 .00011482 00000-0 21019-3 0 9995 2 25544 51.6334 318.4356 0005155 25.9626 334.1621 15.49813276537348 0 CXO 1 25867U 99040B 25312.23653082 .00000686 00000-0 00000-0 0 9992 2 25867 52.4220 123.7217 8202474 310.7381 359.8594 0.37807226 16485 ...Continue Reading

[TLELIST] Current TLEs

November 6th 2025 PDT

0 HST 1 20580U 90037B 25310.27443333 .00009080 00000-0 32137-3 0 9990 2 20580 28.4659 160.5613 0001673 176.9772 183.0833 15.27337496754413 0 ISS (ZARYA) 1 25544U 98067A 25310.29236606 .00011954 00000-0 21866-3 0 9991 2 25544 51.6335 322.9076 0005124 22.8618 337.2598 15.49789706537203 0 CXO 1 25867U 99040B 25312.23653082 .00000686 00000-0 00000-0 0 9992 2 25867 52.4220 123.7217 8202474 310.7381 359.8594 0.37807226 16485 ...Continue Reading

[TLELIST] Current TLEs

November 5th 2025 PDT

0 HST 1 20580U 90037B 25308.90224495 .00006932 00000-0 24373-3 0 9999 2 20580 28.4662 169.8920 0001792 162.0286 198.0372 15.27312898754208 0 ISS (ZARYA) 1 25544U 98067A 25308.93822298 .00010846 00000-0 19941-3 0 9997 2 25544 51.6335 329.6155 0005046 18.0946 342.0222 15.49755997536997 0 CXO 1 25867U 99040B 25309.59259291 .00000745 00000-0 00000-0 0 9997 2 25867 52.3453 123.8670 8207779 310.6717 0.0538 0.37811702 16477 ...Continue Reading

[TLELIST] Current TLEs

November 4th 2025 PDT

0 HST 1 20580U 90037B 25307.98744179 .00007510 00000-0 26478-3 0 9993 2 20580 28.4664 176.1122 0001844 152.3920 207.6773 15.27300295754064 0 ISS (ZARYA) 1 25544U 98067A 25308.16441419 .00010829 00000-0 19922-3 0 9994 2 25544 51.6336 333.4485 0005036 15.3367 344.7773 15.49739341536875 0 CXO 1 25867U 99040B 25309.59259291 .00000745 00000-0 00000-0 0 9997 2 25867 52.3453 123.8670 8207779 310.6717 0.0538 0.37811702 16477 ...Continue Reading

[TLELIST] Current TLEs

November 3rd 2025 PDT

0 HST 1 20580U 90037B 25306.35384425 .00007204 00000-0 25387-3 0 9995 2 20580 28.4668 187.2184 0001915 134.9270 225.1481 15.27276544753814 0 ISS (ZARYA) 1 25544U 98067A 25306.42331346 .00010070 00000-0 18610-3 0 9999 2 25544 51.6344 342.0717 0004969 8.9436 351.1640 15.49700017536601 0 CXO 1 25867U 99040B 25306.94914393 .00000860 00000-0 00000-0 0 9992 2 25867 52.2511 124.0340 8210183 310.6072 0.2637 0.37806171 16460 ...Continue Reading

[TLELIST] Current TLEs

November 2nd 2025 PDT

0 HST 1 20580U 90037B 25305.37367370 .00008514 00000-0 30155-3 0 9990 2 20580 28.4669 193.8827 0001953 126.3947 233.6828 15.27262832753667 0 ISS (ZARYA) 1 25544U 98067A 25305.52050362 .00011974 00000-0 21987-3 0 9990 2 25544 51.6344 346.5423 0004933 5.4437 354.6605 15.49679820536468 0 CXO 1 25867U 99040B 25306.94914393 .00000860 00000-0 00000-0 0 9992 2 25867 52.2511 124.0340 8210183 310.6072 0.2637 0.37806171 16460 ...Continue Reading

[TLELIST] Current TLEs

November 1st 2025 PDT

0 HST 1 20580U 90037B 25304.78556720 .00009322 00000-0 33100-3 0 9994 2 20580 28.4669 197.8810 0001996 121.0910 238.9881 15.27252670753578 0 ISS (ZARYA) 1 25544U 98067A 25304.61768088 .00014957 00000-0 27275-3 0 9990 2 25544 51.6344 351.0134 0004897 1.8672 358.2334 15.49657005536323 0 CXO 1 25867U 99040B 25306.94914393 .00000860 00000-0 00000-0 0 9992 2 25867 52.2511 124.0340 8210183 310.6072 0.2637 0.37806171 16460 ...Continue Reading

[TLELIST] Current TLEs

October 31st 2025 PDT

0 HST 1 20580U 90037B 25304.00141855 .00010055 00000-0 35776-3 0 9994 2 20580 28.4669 203.2120 0002032 113.4940 246.5868 15.27238201753455 0 ISS (ZARYA) 1 25544U 98067A 25304.16626396 .00017194 00000-0 31236-3 0 9993 2 25544 51.6343 353.2496 0004911 359.9780 0.1208 15.49645314536256 0 CXO 1 25867U 99040B 25306.94914393 .00000860 00000-0 00000-0 0 9992 2 25867 52.2511 124.0340 8210183 310.6072 0.2637 0.37806171 16460 ...Continue Reading

[TLELIST] Current TLEs

October 30th 2025 PDT

0 HST 1 20580U 90037B 25303.02122123 .00009815 00000-0 34925-3 0 9999 2 20580 28.4669 209.8759 0002070 104.0895 255.9930 15.27218674753302 0 ISS (ZARYA) 1 25544U 98067A 25303.19892820 .00018950 00000-0 34377-3 0 9992 2 25544 51.6344 358.0397 0004876 356.3572 3.7380 15.49612377536107 0 CXO 1 25867U 99040B 25304.30481514 .00000945 00000-0 00000-0 0 9998 2 25867 52.1821 124.1649 8211418 310.5885 0.2547 0.37801472 16457 ...Continue Reading

[TLELIST] Current TLEs

October 29th 2025 PDT

0 HST 1 20580U 90037B 25301.45287957 .00009418 00000-0 33512-3 0 9991 2 20580 28.4671 220.5377 0002110 87.6959 272.3877 15.27189683753066 0 ISS (ZARYA) 1 25544U 98067A 25301.52216109 .00016210 00000-0 29595-3 0 9990 2 25544 51.6346 6.3420 0004740 349.4592 10.6297 15.49553329535849 0 CXO 1 25867U 99040B 25304.30481514 .00000945 00000-0 00000-0 0 9998 2 25867 52.1821 124.1649 8211418 310.5885 0.2547 0.37801472 16457 ...Continue Reading
  • This mailing list is a public mailing list - anyone may join or leave, at any time.
  • This mailing list is announce-only.

International Space Station (ISS) / Hubble Space Telescope (HST) / Chandra X-Ray Observatory Orbital Data via EMAIL

Privacy Policy:

Private list